Location: Bourg-d�Oueil
(42.8588°N, 0.4991°E)
Time: 20:37:20
(UTC+00:00)

CARTOSAT-1 - Pass Details

Date: 16 June 2021
Orbit: 616 x 618 km, 97.8° (Epoch: 22 July)

Event Time Altitude Azimuth Distance (km) Brightness Sun altitude
Exits shadow 21:10:53 20° 155° (SSE) 1,439 4.8 -13.3°
Maximum altitude 21:13:49 70° 75° (ENE) 660 3.6 -13.6°
Drops below altitude 10° 21:18:08 10° 352° (N) 1,992 7.1 -14.1°
Sets 21:20:20 0° 350° (N) 2,903 8.2 -14.4°
